Location: Colle Pacifico
(43.5333°N, 13.3167°E)
Time: 09:51:31
(UTC+00:00)

Cosmos 1980 Rocket - Pass Details

Date: 07 June 2020
Orbit: 828 x 851 km, 71.0° (Epoch: 04 July)

Event Time Altitude Azimuth Distance (km) Brightness Sun altitude
Exits shadow 00:51:55 24° 251° (WSW) 1,654 3.3 -19.3°
Maximum altitude 00:54:40 40° 303° (WNW) 1,228 3.1 -19.1°
Drops below altitude 10° 00:59:58 10° 12° (NNE) 2,469 5.8 -18.7°
Sets 01:02:36 0° 20° (NNE) 3,412 7.0 -18.5°
